KE4JRS Weather Reports


Display with metric or nautical units.
time (UTC)temp
F
wind
direction
speed
MPH
gust
MPH
rain 1hr
in
rain 24hr
in
rain mn
in
humidity
%
barometer
mb
20260504151010 78 159 2.0 8.0 0.00 0.12 0.04 81 1015.4
20260504150511 78 143 2.0 8.0 0.00 0.12 0.04 82 1015.4
20260504141013 75 138 0.0 6.0 0.00 0.12 0.04 88 1015.2
20260504140508 75 158 3.0 6.0 0.00 0.12 0.04 87 1015.2
20260504130504 74 135 0.0 1.0 0.00 0.12 0.04 92 1014.6
20260504110502 71 160 0.0 2.0 0.00 0.29 0.04 95 1013.9
20260504100507 71 135 0.0 2.0 0.00 0.29 0.04 94 1013.6
20260504082003 73 83 1.0 2.0 0.03 0.29 0.04 93 1013.1
20260504081511 73 82 0.0 2.0 0.04 0.29 0.04 93 1013.2
20260504081003 73 86 0.0 1.0 0.04 0.29 0.04 93 1013.3
20260504080503 73 86 0.0 1.0 0.04 0.29 0.04 93 1013.3
20260504050504 74 162 0.0 0.0 0.00 0.25 0.00 93 1015.2
20260504050006 74 162 0.0 0.0 0.00 0.25 0.00 93 1015.3
20260504045502 74 162 0.0 0.0 0.00 0.25 0.00 92 1015.2
20260504045003 74 162 0.0 0.0 0.00 0.25 0.00 93 1015.2
20260504044522 74 162 0.0 0.0 0.00 0.25 0.00 92 1015.3
20260504044009 74 162 0.0 0.0 0.00 0.25 0.00 92 1015.2
20260504043506 74 162 0.0 0.0 0.00 0.25 0.00 92 1015.1
20260504043018 74 162 0.0 0.0 0.00 0.25 0.00 92 1015.3
20260504042506 74 162 0.0 0.0 0.00 0.25 0.00 92 1015.3
20260504042006 74 162 0.0 0.0 0.00 0.25 0.00 92 1015.3
20260504041524 74 162 0.0 0.0 0.00 0.25 0.00 92 1015.2
20260504041005 74 162 0.0 0.0 0.00 0.25 0.00 92 1015.2
20260504040508 74 162 0.0 0.0 0.00 0.25 0.00 91 1015.0
20260504040026 74 162 0.0 0.0 0.00 0.25 0.00 91 1014.9
20260504035507 74 162 0.0 0.0 0.00 0.25 0.25 91 1015.2
20260504035001 74 162 0.0 0.0 0.00 0.25 0.25 91 1015.3
20260504034512 74 162 0.0 0.0 0.00 0.25 0.25 91 1015.1
20260504034002 74 162 0.0 0.0 0.00 0.25 0.25 91 1015.0
20260504033503 74 162 0.0 0.0 0.00 0.25 0.25 90 1014.9
20260504033015 74 162 0.0 0.0 0.00 0.25 0.25 90 1015.0
20260504032507 74 162 0.0 1.0 0.00 0.25 0.25 90 1015.0
20260504032011 75 162 0.0 1.0 0.00 0.25 0.25 90 1015.0
20260504031522 74 162 0.0 1.0 0.00 0.25 0.25 90 1015.1
20260504031006 75 162 0.0 2.0 0.00 0.25 0.25 90 1015.2
20260504030509 75 162 0.0 3.0 0.00 0.25 0.25 90 1015.3
20260504030039 75 174 0.0 3.0 0.00 0.25 0.25 90 1015.2
20260504025512 75 177 1.0 3.0 0.00 0.25 0.25 90 1015.3
20260504025009 75 169 0.0 1.0 0.00 0.25 0.25 89 1015.2
20260504024524 75 172 0.0 4.0 0.00 0.25 0.25 89 1015.3
20260504024003 75 172 0.0 4.0 0.00 0.25 0.25 89 1015.3
20260504023506 75 191 1.0 3.0 0.00 0.25 0.25 89 1015.3
20260504023012 75 183 0.0 2.0 0.00 0.25 0.25 89 1015.2
20260504022502 75 158 0.0 2.0 0.00 0.25 0.25 90 1015.2
20260504022008 75 159 0.0 2.0 0.00 0.25 0.25 90 1015.2
20260504021518 75 190 0.0 2.0 0.00 0.25 0.25 90 1015.1
20260504021008 75 190 0.0 2.0 0.00 0.25 0.25 90 1015.0
20260504020508 75 167 0.0 2.0 0.00 0.25 0.25 91 1014.9
20260504020022 75 175 0.0 2.0 0.00 0.25 0.25 91 1015.0
20260504015510 75 175 0.0 2.0 0.00 0.25 0.25 91 1015.0
20260504015008 75 175 0.0 2.0 0.00 0.25 0.25 91 1015.0
20260504014536 75 324 0.0 0.0 0.00 0.25 0.25 91 1015.0
20260504014012 75 324 0.0 0.0 0.00 0.25 0.25 92 1015.0
20260504013510 75 324 0.0 0.0 0.00 0.25 0.25 92 1015.1
20260504013026 75 324 0.0 0.0 0.00 0.25 0.25 92 1015.0
20260504012503 75 324 0.0 0.0 0.00 0.25 0.25 92 1015.0
20260504012003 75 324 0.0 0.0 0.00 0.25 0.25 92 1015.0
20260504011513 74 324 0.0 0.0 0.00 0.25 0.25 92 1015.0
20260504011004 74 324 0.0 0.0 0.00 0.25 0.25 92 1014.9
20260504010506 74 324 0.0 0.0 0.00 0.25 0.25 92 1014.7
20260504010022 74 324 0.0 2.0 0.00 0.25 0.25 92 1014.6
20260504005507 74 324 0.0 2.0 0.00 0.25 0.25 92 1014.5
20260504005006 74 324 0.0 0.0 0.00 0.25 0.25 92 1014.3
20260504004524 74 324 0.0 0.0 0.00 0.25 0.25 92 1014.4
20260504004010 74 324 0.0 1.0 0.00 0.25 0.25 92 1014.4
20260504003512 74 336 0.0 1.0 0.00 0.25 0.25 92 1014.4
20260504003031 74 336 0.0 1.0 0.00 0.25 0.25 92 1014.4
20260504002507 74 336 0.0 0.0 0.00 0.25 0.25 92 1014.4
20260504002011 74 336 0.0 0.0 0.00 0.25 0.25 92 1014.4
20260504001527 74 336 0.0 0.0 0.00 0.25 0.25 91 1014.3
20260504001003 74 336 0.0 0.0 0.00 0.25 0.25 91 1014.3
20260504000503 74 336 0.0 0.0 0.00 0.25 0.25 91 1014.2
20260504000015 74 336 0.0 1.0 0.00 0.25 0.25 91 1014.2
20260503235504 74 336 0.0 3.0 0.00 0.25 0.25 90 1014.1
20260503235010 75 336 0.0 3.0 0.00 0.25 0.25 90 1013.9
20260503234530 75 220 0.0 1.0 0.00 0.25 0.25 90 1013.9
20260503234007 75 220 0.0 2.0 0.00 0.25 0.25 90 1013.9
20260503233507 75 233 0.0 2.0 0.00 0.25 0.25 90 1013.9
20260503233024 75 182 0.0 1.0 0.00 0.25 0.25 89 1013.9
20260503232510 75 211 0.0 1.0 0.00 0.25 0.25 89 1014.0
20260503232009 75 211 0.0 1.0 0.00 0.25 0.25 89 1013.8
20260503231530 75 253 0.0 3.0 0.00 0.25 0.25 89 1013.7
20260503231009 76 254 0.0 3.0 0.00 0.25 0.25 89 1013.8
20260503230508 76 198 0.0 2.0 0.00 0.25 0.25 89 1013.9
20260503230027 76 198 0.0 2.0 0.00 0.25 0.25 89 1014.0
20260503225504 76 169 0.0 1.0 0.00 0.25 0.25 88 1013.9
20260503225005 77 172 0.0 1.0 0.00 0.25 0.25 88 1014.0
20260503224521 77 173 0.0 1.0 0.00 0.25 0.25 88 1013.9
20260503224004 77 77 0.0 2.0 0.00 0.25 0.25 88 1013.8
20260503223506 77 77 1.0 2.0 0.00 0.25 0.25 87 1013.8
20260503223024 77 119 0.0 2.0 0.00 0.25 0.25 86 1013.8
20260503222507 77 245 0.0 3.0 0.00 0.25 0.25 85 1013.6
20260503222009 78 264 0.0 3.0 0.00 0.25 0.25 85 1013.6
20260503221524 78 247 1.0 3.0 0.00 0.25 0.25 85 1013.8
20260503221010 78 251 1.0 2.0 0.00 0.25 0.25 85 1013.8
20260503220511 78 256 0.0 3.0 0.00 0.25 0.25 85 1013.8
20260503220026 78 259 0.0 3.0 0.00 0.25 0.25 85 1013.8
20260503215511 78 240 1.0 3.0 0.00 0.25 0.25 84 1013.8
20260503215007 78 225 1.0 2.0 0.00 0.25 0.25 84 1013.8
20260503214514 78 207 0.0 1.0 0.00 0.25 0.25 85 1013.8
20260503214004 78 198 0.0 1.0 0.00 0.25 0.25 84 1013.9
20260503213508 78 195 0.0 2.0 0.00 0.25 0.25 85 1013.9
20260503213018 78 196 0.0 2.0 0.00 0.25 0.25 84 1013.9
20260503212508 78 234 1.0 2.0 0.00 0.25 0.25 84 1014.0
20260503212009 78 229 0.0 2.0 0.00 0.25 0.25 84 1014.1
20260503211523 78 233 0.0 2.0 0.00 0.25 0.25 84 1014.1
20260503211010 78 245 0.0 2.0 0.00 0.25 0.25 85 1014.0
20260503210514 78 41 0.0 1.0 0.00 0.25 0.25 84 1014.1
20260503210028 78 40 0.0 1.0 0.00 0.25 0.25 85 1014.2
20260503205507 78 40 0.0 1.0 0.00 0.25 0.25 84 1014.3
20260503205009 78 41 0.0 3.0 0.00 0.25 0.25 85 1014.4
20260503204543 78 21 0.0 3.0 0.00 0.25 0.25 85 1014.4
20260503204011 78 64 0.0 1.0 0.00 0.25 0.25 85 1014.5
20260503203511 78 64 0.0 2.0 0.00 0.25 0.25 85 1014.4
20260503203021 78 47 0.0 2.0 0.00 0.25 0.25 85 1014.3
20260503202507 79 339 0.0 1.0 0.00 0.25 0.25 84 1014.4
20260503202009 79 266 0.0 0.0 0.00 0.25 0.25 84 1014.4
20260503201522 79 266 0.0 1.0 0.00 0.25 0.25 84 1014.2
20260503201008 79 266 0.0 1.0 0.00 0.25 0.25 83 1014.1
20260503200507 79 266 0.0 2.0 0.00 0.25 0.25 83 1014.3
20260503200024 79 265 1.0 2.0 0.00 0.25 0.25 82 1014.2
20260503195511 80 41 0.0 2.0 0.00 0.25 0.25 83 1014.3
20260503195009 80 41 1.0 2.0 0.00 0.25 0.25 83 1014.3
20260503194527 80 264 0.0 2.0 0.00 0.25 0.25 84 1014.3
20260503194009 80 246 0.0 2.0 0.00 0.25 0.25 84 1014.3
20260503193509 80 220 0.0 2.0 0.00 0.25 0.25 83 1014.4
20260503193034 80 220 1.0 2.0 0.00 0.25 0.25 83 1014.4
20260503192511 80 215 0.0 2.0 0.00 0.25 0.25 85 1014.6
20260503192015 80 216 0.0 2.0 0.00 0.25 0.25 84 1014.6
20260503191517 79 143 0.0 1.0 0.00 0.25 0.25 84 1014.8
20260503191010 79 142 0.0 1.0 0.00 0.25 0.25 85 1015.0
20260503190508 79 142 0.0 1.0 0.00 0.25 0.25 85 1015.0
20260503190024 79 122 0.0 1.0 0.00 0.25 0.25 85 1015.0
20260503185507 79 116 0.0 0.0 0.00 0.25 0.25 86 1015.0
20260503185010 79 116 0.0 1.0 0.00 0.25 0.25 86 1015.2
20260503184536 78 116 0.0 1.0 0.00 0.25 0.25 86 1015.2
20260503184012 78 116 0.0 1.0 0.08 0.25 0.25 85 1015.2
20260503183509 78 116 0.0 1.0 0.08 0.25 0.25 84 1015.3
20260503183009 79 103 0.0 1.0 0.08 0.25 0.25 85 1015.4
20260503182503 78 102 0.0 1.0 0.08 0.25 0.25 86 1015.4
20260503182006 78 102 0.0 1.0 0.08 0.25 0.25 85 1015.5
20260503181514 78 102 0.0 0.0 0.08 0.25 0.25 86 1015.6
20260503181005 78 102 0.0 0.0 0.08 0.25 0.25 87 1015.7
20260503180506 78 102 0.0 0.0 0.08 0.25 0.25 86 1015.6
20260503180024 78 102 0.0 0.0 0.08 0.25 0.25 85 1015.7
20260503175505 78 102 0.0 1.0 0.08 0.25 0.25 85 1015.6
20260503175010 79 102 0.0 1.0 0.08 0.25 0.25 83 1015.7
20260503174506 79 102 0.0 3.0 0.08 0.25 0.25 80 1015.8
20260503174004 80 102 0.0 3.0 0.00 0.17 0.17 77 1016.1
20260503173503 80 169 0.0 4.0 0.00 0.17 0.17 77 1015.9
20260503173007 80 153 0.0 4.0 0.00 0.17 0.17 77 1015.8
20260503172504 80 200 2.0 4.0 0.00 0.17 0.17 78 1015.8
20260503172003 80 162 1.0 4.0 0.00 0.17 0.17 78 1015.8
20260503171510 79 159 1.0 4.0 0.00 0.17 0.17 78 1015.8
20260503171004 79 187 1.0 4.0 0.00 0.17 0.17 78 1015.8
20260503170506 79 171 1.0 4.0 0.00 0.17 0.17 79 1015.9